RH
79 80 82 90 90 91 93 93 92 91 90 89 89 92 93 96 96 96 94 93 97 97 97 96 98 96 98 99 98 98 99 97 98 99 98 99 99 98 99 98 96 91 88
75 75 83 85 92 94 92 92 91 90 89 88 91 93 94 94 96 95 92 92 93 98 97 95 97 96 97 98 97 98 98 97 97 98 99 100 98 98 98 97 90 73 79
70 72 86 86 90 92 91 92 90 90 90 90 91 94 94 94 94 93 92 92 95 97 95 95 95 94 98 98 97 98 98 98 98 98 99 99 99 99 99 96 89 84 74
66 79 84 85 88 90 93 92 91 90 92 92 93 92 93 93 93 92 92 92 94 96 96 95 93 93 96 97 98 98 98 98 98 98 99 99 99 99 90 88 89 85 75
65 80 80 83 86 89 92 92 91 91 90 91 94 94 93 93 92 94 91 86 94 97 97 93 95 94 96 96 97 98 96 97 98 99 99 98 97 93 91 87 86 87 84
65 76 78 79 81 86 89 90 90 89 89 90 92 92 95 96 100 100 97 89 94 96 98 96 95 97 97 98 98 99 96 95 98 89 92 92 91 87 81 81 83 81 70
63 73 74 74 76 79 83 85 87 90 90 92 91 92 95 98 100 100 100 94 96 98 98 96 94 94 92 92 99 99 97 92 92 94 93 88 89 86 84 85 84 77 75
60 68 69 68 72 76 80 84 86 88 91 92 88 91 95 98 100 100 100 95 96 96 95 94 94 93 95 90 90 90 89 86 88 78 85 86 84 86 81 79 83 89 84
58 65 62 64 75 77 80 84 83 87 87 86 83 93 94 98 100 100 97 94 93 95 92 95 92 90 100 100 84 83 74 75 82 91 91 92 92 95 86 90 91 92 93
56 57 57 64 72 75 82 84 83 82 82 77 81 86 95 94 100 100 96 89 95 95 96 95 100 95 100 98 85 74 75 70 72 73 68 79 92 92 95 85 84 80 72
52 56 57 69 73 77 84 84 82 81 82 81 78 78 82 90 96 100 100 90 89 90 89 86 87 100 100 96 91 76 75 70 70 67 66 69 74 76 74 80 81 68 67
54 54 59 68 63 71 81 83 80 82 83 82 79 75 70 80 99 100 100 97 96 86 85 82 82 94 97 94 86 85 83 77 67 70 74 81 81 75 75 75 80 76 72
59 62 63 64 76 76 81 81 78 82 76 80 73 72 70 65 71 94 96 94 94 83 80 83 88 90 93 92 89 88 81 68 74 76 81 82 72 69 75 73 76 75 76
57 64 66 62 78 80 75 74 73 76 77 72 72 73 73 68 63 69 78 80 87 79 85 77 80 82 85 79 68 66 58 70 72 76 78 75 70 65 63 59 63 61 54
55 59 65 59 67 83 78 78 71 75 67 69 70 67 74 71 65 67 76 76 77 78 79 69 66 65 59 55 52 56 63 80 75 76 71 65 60 58 56 59 58 57 55
51 53 56 57 64 74 80 80 84 87 93 90 88 73 67 70 77 74 74 82 90 79 66 66 68 65 62 56 51 48 60 82 75 69 66 58 55 55 57 60 53 55 61
45 52 50 56 59 70 76 75 77 78 92 94 95 93 86 75 86 78 75 84 88 74 64 62 63 64 61 60 53 46 49 69 76 64 61 60 60 59 56 56 55 58 58
46 58 46 48 54 58 65 66 65 72 73 78 82 90 93 90 90 86 82 79 71 70 61 60 56 56 60 59 57 52 58 70 73 66 62 62 62 57 58 60 62 65 63
42 44 41 46 53 62 64 65 64 68 69 74 68 73 81 91 93 88 77 55 52 55 57 56 53 53 52 51 56 56 64 70 71 73 70 64 61 56 58 64 64 72 73
42 53 50 47 55 62 64 66 65 71 72 70 65 63 71 73 76 77 69 61 56 50 50 50 52 54 50 47 48 54 68 78 73 68 64 62 60 56 57 61 59 60 59
38 50 50 46 54 55 60 62 65 62 63 65 63 65 78 58 59 66 68 66 59 53 53 50 46 51 52 58 54 55 62 70 69 66 62 62 62 56 58 67 64 68 74
41 48 45 42 49 54 59 60 65 61 61 63 61 72 83 56 54 56 60 62 59 56 50 53 50 54 58 60 62 62 61 67 68 64 62 60 63 70 71 74 74 81 82
46 50 47 45 50 64 65 64 60 64 63 63 63 74 66 59 56 55 58 59 63 62 54 50 51 57 60 65 64 62 63 66 65 61 61 64 69 74 77 83 86 89 80
51 53 49 48 52 57 58 61 68 79 61 72 79 74 71 61 61 58 56 58 61 60 58 55 49 51 63 68 68 68 63 63 59 56 58 68 76 82 88 90 90 86 76
50 58 55 57 54 57 58 59 72 74 64 68 68 67 74 75 62 61 60 60 65 66 64 61 57 57 66 67 70 69 80 78 60 66 68 73 81 86 88 90 90 80 76
58 61 60 59 62 59 58 60 70 73 69 70 66 65 71 68 72 75 75 72 74 74 76 78 75 69 72 69 68 80 80 80 79 75 76 84 87 90 90 89 76 66 70
Wind_Speed
5 4 5 5 5 5 4 4 4 3 3 3 3 4 4 5 4 5 3 3 5 5 5 6 7 7 6 7 5 6 7 8 9 6 7 10 11 11 8 6 5 3 4
5 4 4 5 5 5 4 4 4 3 2 3 4 5 5 4 4 5 4 5 6 5 6 7 8 7 8 7 7 8 8 7 9 13 5 4 11 10 6 6 4 3 4
5 5 5 4 5 5 5 5 4 4 4 3 4 5 5 5 5 4 5 6 6 5 6 7 8 10 9 8 8 8 8 8 8 7 5 3 6 5 4 3 3 3 2
5 5 6 5 5 4 5 5 5 4 4 4 4 6 5 5 5 5 5 6 6 6 7 6 7 10 11 9 8 9 9 9 9 9 7 6 4 3 2 3 3 1 2
6 6 6 5 5 5 5 5 5 5 4 4 6 6 5 5 4 6 7 8 6 7 7 6 7 10 10 10 8 8 10 8 7 7 5 3 3 3 4 3 3 2 1
6 6 6 6 6 5 5 5 5 5 5 4 5 6 6 4 9 9 8 7 6 7 8 8 7 10 9 12 12 9 8 8 8 6 3 5 5 4 3 4 4 3 2
6 6 6 6 6 6 5 5 5 5 4 5 4 4 5 5 8 10 9 5 5 6 8 8 8 6 9 10 11 12 10 10 4 4 7 4 4 6 6 4 3 3 2
6 6 6 6 7 6 6 5 4 3 4 4 4 4 5 4 10 9 10 7 6 7 7 7 9 9 7 9 9 6 4 3 1 1 3 4 3 7 6 4 4 6 4
7 7 6 6 7 7 6 6 3 4 3 2 3 5 6 5 7 10 8 7 8 9 7 6 8 8 8 10 7 6 3 2 5 4 4 3 5 10 8 6 4 4 3
8 8 7 7 9 8 7 7 4 3 4 4 4 3 6 6 6 9 7 5 7 5 4 5 9 8 8 7 5 4 4 4 5 6 5 6 6 5 7 3 6 6 4
8 7 7 6 8 8 7 4 5 5 5 5 5 3 4 4 6 7 8 5 5 5 5 4 4 9 9 4 5 4 2 6 7 6 5 5 5 6 3 2 3 5 4
8 8 7 6 5 6 9 5 5 7 6 5 5 4 3 1 4 7 9 7 7 6 5 3 3 6 6 8 5 5 8 6 6 6 6 4 5 5 5 7 9 9 7
8 8 7 7 5 6 7 7 5 5 6 5 3 3 3 3 2 5 6 7 8 4 3 4 8 8 9 6 3 7 8 4 6 5 5 4 4 7 9 9 10 12 13
10 7 7 8 6 5 4 6 7 6 4 5 4 4 2 2 3 3 3 4 7 5 7 6 6 6 5 5 5 4 4 4 5 6 5 6 7 6 6 5 8 8 9
10 7 7 6 8 7 5 5 7 7 9 8 6 6 6 4 5 7 8 5 4 6 8 4 2 2 3 3 2 3 3 4 5 5 7 7 8 7 6 6 7 5 7
10 7 7 7 6 7 7 4 7 1 9 6 6 9 6 8 12 13 11 7 12 15 3 3 3 4 5 5 4 4 3 5 5 7 7 8 9 8 8 5 6 7 8
14 10 7 8 8 8 7 8 7 2 4 7 9 10 10 12 13 13 11 9 11 8 3 4 5 7 7 7 6 6 5 5 5 7 7 7 7 7 8 8 7 7 8
13 15 10 9 8 8 9 9 8 7 7 4 4 7 8 5 8 9 16 13 4 3 3 5 7 7 7 7 7 6 5 5 6 7 7 7 7 9 9 8 7 8 7
13 11 12 10 9 9 8 8 8 8 8 4 3 2 5 7 8 12 16 5 8 8 8 7 6 7 7 7 7 7 7 7 7 7 7 8 8 9 9 8 8 10 11
13 15 13 10 9 9 8 9 8 8 7 7 6 8 6 6 5 6 7 7 6 7 7 8 8 6 7 8 7 7 6 6 7 8 8 8 8 9 10 10 10 11 8
11 11 15 10 11 11 10 10 9 9 9 8 9 8 12 9 9 8 8 9 9 9 9 9 8 9 8 7 6 8 10 9 9 9 9 8 8 9 7 7 5 5 8
12 12 12 13 10 11 11 10 10 10 10 9 9 6 12 8 7 8 9 9 10 10 9 9 8 8 9 10 11 9 9 9 9 10 10 11 9 8 7 5 8 7 5
8 12 12 11 11 10 8 9 10 10 10 10 9 7 8 9 9 9 9 9 8 9 9 9 9 8 8 9 10 11 13 15 15 15 15 13 12 13 12 8 5 8 4
11 11 14 12 10 10 11 11 10 11 11 10 9 9 9 10 11 12 10 8 8 9 9 9 9 12 9 9 9 9 9 9 9 13 19 17 16 17 14 12 8 7 5
8 9 11 11 11 11 10 10 9 10 11 10 10 10 9 8 9 9 8 7 7 8 9 9 7 9 11 14 11 11 10 14 16 18 14 16 18 17 13 12 12 8 8
7 9 8 9 9 10 10 10 10 9 9 9 8 8 9 10 9 7 6 7 6 6 6 6 7 10 12 11 14 15 17 19 20 22 18 18 17 13 11 13 15 9 10
Wind_Direction
159 160 190 163 152 163 154 143 146 137 146 148 118 108 112 106 110 110 108 113 105 117 106 110 106 115 110 100 104 96 99 107 106 103 106 117 111 112 103 98 116 130 146
161 166 188 159 143 166 157 156 148 141 157 171 133 118 118 119 120 127 130 93 99 89 103 101 96 103 101 99 98 100 108 103 114 119 119 123 125 122 116 121 147 128 139
153 157 152 162 142 155 162 155 143 138 140 131 122 120 127 129 120 108 103 95 87 87 96 104 118 117 110 110 112 114 108 107 110 105 103 82 101 107 105 110 115 105 100
151 150 152 161 143 143 141 133 128 138 134 127 124 122 122 121 116 108 97 95 90 88 90 98 105 115 121 123 113 109 111 114 118 122 107 85 91 93 98 128 133 139 114
154 156 163 133 122 125 126 125 128 130 127 126 117 119 126 121 121 116 107 112 91 90 88 89 78 100 109 121 126 123 124 124 124 119 107 104 113 144 165 153 106 93 90
161 167 150 132 129 130 132 138 134 132 129 127 128 135 138 128 137 124 127 129 115 112 102 98 103 97 96 99 103 91 111 132 129 130 125 143 146 146 142 132 125 157 156
167 161 152 144 135 143 139 134 137 141 139 132 121 132 135 135 143 144 127 129 112 110 114 121 114 114 113 107 91 94 101 107 101 125 140 144 143 165 144 134 158 157 121
171 168 153 151 143 144 133 134 123 122 143 137 132 136 128 127 152 136 121 122 118 109 119 123 125 115 102 114 115 117 112 84 75 138 161 174 175 159 156 154 145 114 100
175 174 167 156 151 151 148 151 146 131 126 138 144 138 131 144 144 134 122 126 127 126 123 119 126 120 126 124 116 117 87 93 46 111 89 102 144 141 143 124 125 121 89
183 183 167 156 154 164 157 161 146 134 134 130 123 141 130 145 161 149 134 125 120 120 90 106 99 120 131 134 107 127 150 161 136 114 110 82 95 149 150 77 151 142 134
179 160 161 164 163 162 151 157 141 130 120 116 111 117 133 160 168 171 148 135 131 134 142 143 152 143 153 161 113 144 159 135 119 119 114 95 78 91 96 80 123 131 134
162 163 164 172 161 144 159 148 142 134 130 134 126 106 94 103 147 185 174 142 146 139 156 161 155 171 166 167 177 176 122 128 127 116 110 105 106 104 90 89 88 83 69
157 170 165 158 163 153 147 144 136 142 147 156 154 149 147 134 136 181 189 161 163 146 155 164 144 157 156 160 194 139 146 159 135 138 146 138 130 117 110 96 91 91 74
172 177 159 159 157 156 141 156 153 160 158 162 164 173 165 155 162 159 168 151 128 97 101 89 96 98 84 104 110 155 183 182 159 151 146 128 128 135 134 135 116 108 95
174 173 167 166 169 164 152 170 177 187 176 175 192 174 166 192 213 182 165 167 171 131 110 100 104 106 132 152 147 165 169 156 149 138 143 143 147 147 140 134 130 123 117
172 171 178 169 172 169 163 145 47 27 207 219 176 171 198 197 173 180 188 158 133 143 102 148 174 180 181 184 180 177 188 181 167 156 156 158 156 154 145 140 130 124 122
175 173 169 172 176 174 178 181 187 58 112 182 190 200 190 185 177 188 179 129 157 152 150 171 185 192 202 198 192 189 188 187 153 164 164 163 153 147 146 143 124 115 113
175 166 170 181 185 185 189 194 195 191 196 183 204 195 215 198 195 164 136 120 131 245 200 192 205 199 199 198 197 202 191 170 179 170 167 160 155 150 146 140 135 129 124
172 174 180 179 182 182 184 187 194 194 198 166 138 142 112 137 139 146 167 181 184 197 208 217 209 198 197 195 199 198 191 184 177 168 164 159 156 153 145 140 137 145 145
184 174 173 176 173 180 183 187 190 192 192 192 191 201 140 131 176 179 194 203 199 206 205 215 216 208 199 194 188 184 179 166 172 174 168 161 159 156 152 150 154 156 161
178 170 173 174 182 186 186 192 193 196 201 201 210 187 176 182 195 188 191 200 208 212 211 212 212 210 202 187 184 183 181 176 174 166 161 155 153 149 144 126 81 75 104
174 172 177 189 182 186 193 191 192 195 199 200 210 184 171 200 195 197 200 203 208 213 213 211 215 209 195 187 181 175 181 178 172 165 156 147 128 114 101 97 110 113 100
196 170 181 186 190 183 176 189 192 196 202 206 202 178 181 201 210 209 208 209 205 207 208 207 211 207 195 193 191 188 184 181 177 167 160 148 138 131 122 120 131 117 128
168 203 177 183 180 183 186 191 195 198 201 200 198 197 195 200 206 213 212 206 204 209 206 207 213 212 198 192 189 190 188 175 165 163 152 146 138 134 131 133 135 119 129
182 192 194 177 177 184 187 192 198 202 206 202 204 206 203 202 207 210 213 205 199 198 207 208 208 206 188 185 179 166 132 135 145 144 140 134 129 135 140 135 136 148 134
200 179 216 175 173 178 186 190 197 194 210 209 205 211 205 210 214 209 203 197 198 203 193 191 191 184 171 169 156 142 143 140 141 142 137 134 136 140 144 139 151 147 146